Regional Weather Roundup
Issued by NWS

Home | Current Version | Previous Version | Graphics & Text | Print | Product List | Glossary On
Versions: 1 2 3 4 5 6 7 8 9 10 11 12 13 14 15 16 17 18 19 20 21 22 23 24 25 26 27 28 29 30 31 32 33 34 35 36 37 38 39 40 41 42 43 44 45 46 47 48 49 50
000
ASUS44 KMEG 272310
RWRTN
TENNESSEE HOURLY STATE WEATHER ROUNDUP
NATIONAL WEATHER SERVICE MEMPHIS TN
600 PM CDT WED MAY 27 2015

TNZ002-004-019-021-049-052-054-088>092-280000-
WEST TENNESSEE

CITY           SKY/WX    TMP DP  RH WIND       PRES   REMARKS
MEMPHIS INTL   CLOUDY    77  66  68 SE7       30.10S
NWS MEMPHIS      N/A     76 N/A N/A MISG        N/A
JACKSON        CLOUDY    75  66  73 S5        30.11R
DYERSBURG      CLOUDY    77  57  50 CALM      30.10R
PARIS          SUNNY     73  66  78 S5        30.11S
LEXINGTON      SUNNY     70  68  94 CALM      30.12S
$$

TNZ008-025-027-028-033-062-065-066-280000-
NORTH MIDDLE TENNESSEE

CITY           SKY/WX    TMP DP  RH WIND       PRES   REMARKS
NASHVILLE      CLOUDY    71  68  90 S8        30.15R
CLARKSVILLE    CLOUDY    73  67  81 S3        30.12R
SMYRNA         LGT RAIN  70  68  93 S6        30.16R
COOKEVILLE     MOSUNNY   70  66  88 CALM      30.17S
CROSSVILLE     PTSUNNY   73  61  65 VRB3      30.22R
$$

TNZ061-075-076-078-094-096-097-280000-
SOUTH MIDDLE TENNESSEE

CITY           SKY/WX    TMP DP  RH WIND       PRES   REMARKS
FAYETTEVILLE     N/A    N/A N/A N/A MISG      30.14F
TULLAHOMA      SUNNY     73  64  73 N8        30.18F
WINCHESTER     MOSUNNY   73  64  73 E8        30.16R
MCMINNVILLE    SUNNY     75  64  69 NW3       30.18S
COLUMBIA       MOSUNNY   70  68  94 S5        30.12F
SHELBYVILLE    SUNNY     73  68  83 CALM      30.17F
$$

TNZ017-018-042-046-047-280000-
NORTHEAST TENNESSEE

CITY           SKY/WX    TMP DP  RH WIND       PRES   REMARKS
TRI CITIES     MOSUNNY   83  57  41 VRB7      30.18R
ELIZABETHTON   PTCLDY    81  57  44 NW3       30.18R
$$

TNZ012-013-036-069-073-074-280000-
CENTRAL EAST TENNESSEE

CITY           SKY/WX    TMP DP  RH WIND       PRES   REMARKS
KNOXVILLE      MOSUNNY   82  60  47 NW6       30.15F
OAK RIDGE      PTSUNNY   83  63  50 VRB3      30.17F
GATLINBURG       N/A     82  61  47 VRB7      30.16R
MORRISTOWN     CLEAR     82  61  47 NW7       30.19R
$$

TNZ083-085-099-280000-
SOUTHEAST TENNESSEE

CITY           SKY/WX    TMP DP  RH WIND       PRES   REMARKS
CHATTANOOGA    PTSUNNY   82  65  56 SE9       30.14S
$$

SKY/WX REPORTED AS FAIR MEANS FEW OR NO CLOUDS BELOW
12 THOUSAND FEET.



USA.gov is the U.S. government's official web portal to all federal, state and local government web resources and services.